KD5HIA Weather Reports


time (UTC)temp
C
wind
direction
speed
KPH
gust
KPH
rain 1hr
cm
rain 24hr
cm
rain mn
cm
humidity
%
barometer
mb
20260510045018 21 203 9.7 12.9 0.00 0.00 0.00 73 1010.6
20260510044018 22 180 4.8 9.7 0.00 0.00 0.00 72 1010.7
20260510043017 22 180 6.4 9.7 0.00 0.00 0.00 72 1010.4
20260510042017 22 180 6.4 9.7 0.00 0.00 0.00 73 1010.5
20260510041017 22 180 4.8 8.0 0.00 0.00 0.00 73 1010.4
20260510040018 22 203 6.4 11.3 0.00 0.00 0.00 72 1010.4
20260510035017 22 203 4.8 8.0 0.00 0.00 0.00 70 1010.3
20260510034017 22 180 3.2 6.4 0.00 0.00 0.00 68 1010.3
20260510033017 23 180 3.2 6.4 0.00 0.00 0.00 67 1010.2
20260510032017 23 180 4.8 6.4 0.00 0.00 0.00 65 1010.2
20260510031018 24 180 4.8 8.0 0.00 0.00 0.00 64 1010.3
20260510030018 24 180 4.8 8.0 0.00 0.00 0.00 64 1010.0
20260510025018 25 180 4.8 8.0 0.00 0.00 0.00 62 1010.0
20260510024017 25 158 6.4 9.7 0.00 0.00 0.00 61 1009.8
20260510023017 25 158 6.4 9.7 0.00 0.00 0.00 59 1009.7
20260510022017 26 158 8.0 12.9 0.00 0.00 0.00 57 1009.7
20260510021018 26 158 8.0 11.3 0.00 0.00 0.00 55 1009.5
20260510020017 27 158 8.0 11.3 0.00 0.00 0.00 54 1009.4
20260510015017 27 158 6.4 9.7 0.00 0.00 0.00 51 1009.3
20260510014017 28 158 6.4 9.7 0.00 0.00 0.00 48 1009.3
20260510013017 28 135 4.8 6.4 0.00 0.00 0.00 47 1009.2
20260510012017 29 158 4.8 6.4 0.00 0.00 0.00 44 1009.1
20260510011017 30 158 4.8 8.0 0.00 0.00 0.00 42 1009.0
20260510010017 30 158 6.4 11.3 0.00 0.00 0.00 40 1008.8
20260510005017 31 158 9.7 14.5 0.00 0.00 0.00 39 1008.9
20260510004017 31 180 6.4 9.7 0.00 0.00 0.00 37 1008.8
20260510003017 31 180 8.0 12.9 0.00 0.00 0.00 38 1008.8
20260510002017 31 158 8.0 14.5 0.00 0.00 0.00 38 1008.8
20260510001017 31 158 8.0 14.5 0.00 0.00 0.00 38 1008.8
20260510000018 32 158 9.7 20.9 0.00 0.00 0.00 35 1008.7
20260509235017 32 158 9.7 17.7 0.00 0.00 0.00 35 1008.7
20260509234018 31 180 9.7 19.3 0.00 0.00 0.00 37 1008.7
20260509233017 32 158 8.0 14.5 0.00 0.00 0.00 35 1008.8
20260509232017 32 158 9.7 24.1 0.00 0.00 0.00 34 1008.9
20260509231017 32 158 6.4 12.9 0.00 0.00 0.00 35 1009.0
20260509230017 32 158 6.4 11.3 0.00 0.00 0.00 34 1009.0
20260509225021 32 180 4.8 12.9 0.00 0.00 0.00 38 1009.0
20260509224021 32 203 9.7 19.3 0.00 0.00 0.00 40 1009.1
20260509223021 32 158 4.8 12.9 0.00 0.00 0.00 38 1009.0
20260509222017 32 180 8.0 14.5 0.00 0.00 0.00 37 1009.1
20260509221018 32 203 11.3 19.3 0.00 0.00 0.00 36 1009.2
20260509220017 32 180 9.7 19.3 0.00 0.00 0.00 39 1009.5
20260509215018 32 203 9.7 16.1 0.00 0.00 0.00 42 1009.5
20260509214017 32 248 8.0 12.9 0.00 0.00 0.00 42 1009.8
20260509213017 32 248 9.7 20.9 0.00 0.00 0.00 41 1009.8
20260509212018 31 203 11.3 20.9 0.00 0.00 0.00 38 1010.1
20260509211018 32 248 11.3 20.9 0.00 0.00 0.00 43 1010.2
20260509210017 31 225 6.4 17.7 0.00 0.00 0.00 46 1010.4
20260509205018 31 203 9.7 22.5 0.00 0.00 0.00 43 1010.6
20260509204017 31 225 8.0 17.7 0.00 0.00 0.00 42 1010.7
20260509203017 31 248 9.7 19.3 0.00 0.00 0.00 42 1010.8
20260509202017 31 225 9.7 20.9 0.00 0.00 0.00 45 1011.0
20260509201017 30 203 11.3 19.3 0.00 0.00 0.00 48 1010.9
20260509200017 30 203 9.7 19.3 0.00 0.00 0.00 49 1011.2
20260509195017 30 248 9.7 17.7 0.00 0.00 0.00 46 1011.2
20260509194017 30 248 6.4 16.1 0.00 0.00 0.00 47 1011.4
20260509193018 30 225 8.0 19.3 0.00 0.00 0.00 48 1011.5
20260509192018 30 203 12.9 24.1 0.00 0.00 0.00 49 1011.6
20260509191017 30 180 9.7 17.7 0.00 0.00 0.00 51 1011.8
20260509190018 30 203 9.7 19.3 0.00 0.00 0.00 52 1012.0
20260509185017 29 225 9.7 17.7 0.00 0.00 0.00 51 1012.1
20260509184017 29 180 14.5 24.1 0.00 0.00 0.00 52 1012.2
20260509183017 29 270 8.0 19.3 0.00 0.00 0.00 56 1012.3
20260509182017 28 203 6.4 16.1 0.00 0.00 0.00 58 1012.5
20260509181017 28 158 12.9 25.7 0.00 0.00 0.00 56 1012.8
20260509180017 28 180 9.7 17.7 0.00 0.00 0.00 58 1013.0
20260509175017 27 225 6.4 12.9 0.00 0.00 0.00 60 1013.2
20260509174017 27 203 6.4 14.5 0.00 0.00 0.00 61 1013.3
20260509173018 26 248 6.4 11.3 0.00 0.00 0.00 63 1013.1
20260509172018 26 225 4.8 9.7 0.00 0.00 0.00 66 1013.3
20260509171017 25 203 6.4 11.3 0.00 0.00 0.00 70 1013.2
20260509170017 25 248 6.4 12.9 0.00 0.00 0.00 71 1013.3
20260509165017 25 248 4.8 11.3 0.00 0.00 0.00 71 1013.2
20260509164017 25 225 4.8 11.3 0.00 0.00 0.00 73 1013.3
20260509163017 24 180 8.0 14.5 0.00 0.00 0.00 73 1013.3
20260509162017 23 180 8.0 16.1 0.00 0.00 0.00 74 1013.4
20260509161017 22 248 4.8 11.3 0.00 0.00 0.00 77 1013.2
20260509160017 22 203 6.4 12.9 0.00 0.00 0.00 80 1013.1
20260509155017 21 180 6.4 12.9 0.00 0.00 0.00 81 1013.3
20260509154017 21 203 9.7 14.5 0.00 0.00 0.00 82 1013.3
20260509153017 21 180 6.4 14.5 0.00 0.00 0.00 83 1013.4
20260509152018 20 180 8.0 14.5 0.00 0.00 0.00 84 1013.5
20260509151017 20 203 4.8 11.3 0.00 0.00 0.00 84 1013.6
20260509150017 20 180 6.4 11.3 0.00 0.00 0.00 84 1014.0
20260509145017 20 248 3.2 9.7 0.00 0.00 0.00 85 1013.9
20260509144017 19 180 1.6 6.4 0.00 0.00 0.00 86 1013.8
20260509143017 19 0.0 3.2 0.00 0.00 0.00 87 1013.9
20260509142018 18 158 1.6 3.2 0.00 0.00 0.00 90 1013.9
20260509141018 18 0.0 3.2 0.00 0.00 0.00 90 1013.4
20260509140017 18 0.0 3.2 0.00 0.00 0.00 90 1013.4
20260509135017 18 0.0 0.0 0.00 0.00 0.00 91 1013.3
20260509134018 18 0.0 0.0 0.00 0.00 0.00 90 1013.4
20260509133017 17 0.0 0.0 0.00 0.00 0.00 92 1013.6
20260509132017 17 0.0 0.0 0.00 0.00 0.00 94 1013.3
20260509131017 17 0.0 0.0 0.00 0.00 0.00 94 1013.2
20260509130017 16 0.0 3.2 0.00 0.00 0.00 95 1013.3
20260509125017 16 0.0 1.6 0.00 0.00 0.00 95 1013.1
20260509124017 16 0.0 0.0 0.00 0.00 0.00 95 1012.9
20260509123018 16 0.0 0.0 0.00 0.00 0.00 95 1012.7
20260509122017 15 293 1.6 3.2 0.00 0.00 0.00 94 1012.4
20260509121018 15 293 1.6 4.8 0.00 0.00 0.00 94 1012.3
20260509120018 15 270 3.2 8.0 0.00 0.00 0.00 94 1012.2
20260509115018 15 203 4.8 8.0 0.00 0.00 0.00 93 1012.1
20260509114017 15 225 4.8 12.9 0.00 0.00 0.00 93 1012.1
20260509113017 15 248 4.8 9.7 0.00 0.00 0.00 94 1012.3
20260509112017 15 248 1.6 4.8 0.00 0.00 0.00 94 1012.2
20260509111018 15 203 4.8 9.7 0.00 0.00 0.00 94 1012.2
20260509110018 15 270 3.2 6.4 0.00 0.00 0.00 94 1012.3
20260509105018 15 225 3.2 4.8 0.00 0.00 0.00 94 1012.3
20260509104017 15 158 1.6 4.8 0.00 0.00 0.00 93 1012.5
20260509103017 15 0.0 0.0 0.00 0.00 0.00 93 1012.6
20260509102017 15 135 6.4 11.3 0.00 0.00 0.00 94 1012.4
20260509101021 15 90 3.2 6.4 0.00 0.00 0.00 93 1012.5
20260509100021 15 68 3.2 6.4 0.00 0.00 0.00 93 1012.6
20260509095021 15 68 4.8 6.4 0.00 0.00 0.00 93 1012.3
20260509094017 15 135 3.2 6.4 0.00 0.00 0.00 93 1012.3
20260509093018 15 68 1.6 6.4 0.00 0.00 0.00 92 1012.1
20260509092018 16 0.0 0.0 0.00 0.00 0.00 92 1012.1
20260509091017 16 0.0 0.0 0.00 0.00 0.00 92 1012.4
20260509090017 16 0.0 0.0 0.00 0.00 0.00 92 1012.1
20260509085017 16 225 1.6 4.8 0.00 0.00 0.00 92 1011.9
20260509084018 16 203 3.2 4.8 0.00 0.00 0.00 91 1012.0
20260509083017 16 0.0 3.2 0.00 0.00 0.00 91 1011.9
20260509082017 16 0.0 3.2 0.00 0.00 0.00 91 1012.0
20260509081017 16 135 1.6 4.8 0.00 0.00 0.00 92 1012.4
20260509080018 16 0.0 6.4 0.00 0.00 0.00 92 1012.5
20260509075018 16 0.0 0.0 0.00 0.00 0.00 91 1012.4
20260509074017 16 0.0 0.0 0.00 0.00 0.00 91 1012.5
20260509073018 16 0.0 0.0 0.00 0.00 0.00 92 1011.9
20260509072018 16 0.0 3.2 0.00 0.00 0.00 91 1011.7
20260509071018 16 225 1.6 4.8 0.00 0.00 0.00 91 1011.0
20260509070017 16 225 1.6 3.2 0.00 0.00 0.00 91 1011.0
20260509065017 17 0.0 3.2 0.00 0.00 0.00 91 1010.9
20260509064017 17 203 4.8 9.7 0.00 0.00 0.00 90 1011.0
20260509063018 17 203 6.4 11.3 0.00 0.00 0.00 90 1010.9
20260509062017 17 203 4.8 9.7 0.00 0.00 0.00 90 1010.9
20260509061017 17 203 4.8 8.0 0.00 0.00 0.00 89 1010.7
20260509060017 17 203 1.6 4.8 0.00 0.00 0.00 89 1010.8
20260509055017 17 225 1.6 3.2 0.00 0.00 0.00 89 1010.8
20260509054018 17 203 1.6 3.2 0.00 0.00 0.00 88 1010.7
20260509053018 18 0.0 0.0 0.00 0.00 0.00 87 1010.6
20260509052017 18 0.0 0.0 0.00 0.00 0.00 87 1010.7
20260509051018 18 158 1.6 1.6 0.00 0.00 0.00 88 1010.8
20260509050018 18 158 3.2 4.8 0.00 0.00 0.00 87 1010.9